Simultaneous Nadir Overpasses (SNOs) Predictions

Prediction of SNOs between METOP-B and TERRA Satellite Orbit:

Table of predicted SNOs for the next 14.0 days since TLE Epoch: 7/26/2018
Index Date (METOP-B) Time (METOP-B) Lat,Lon (METOP-B) SZA (METOP-B ) Date (TERRA) Time (TERRA) Lat,Lon (TERRA) SZA (TERRA ) Distance(km) Time Diff (sec)
1 07/28/2018 08:02:31 81.36, 107.54 65.20 07/28/2018 08:02:35 81.35, 107.53 65.20 0.64 4
2 07/28/2018 08:53:10 -81.36, -84.59 114.73 07/28/2018 08:52:01 -81.37, -84.54 114.76 1.00 69
3 07/31/2018 02:46:10 -81.35, 6.45 114.17 07/31/2018 02:47:23 -81.36, 6.51 114.12 1.15 73
4 07/31/2018 03:36:50 81.36, 174.20 65.90 07/31/2018 03:36:49 81.36, 174.25 65.91 1.10 1
5 07/31/2018 04:27:30 -81.36, -18.29 114.08 07/31/2018 04:26:16 -81.36, -18.19 114.10 1.75 74
6 08/02/2018 22:20:29 -81.35, 72.73 113.47 08/02/2018 22:21:37 -81.35, 72.83 113.43 1.60 68
7 08/02/2018 23:11:09 81.36,-119.56 66.59 08/02/2018 23:11:03 81.36,-119.45 66.60 1.84 6
8 08/05/2018 17:54:49 -81.35, 139.00 112.74 08/05/2018 17:55:52 -81.35, 139.12 112.70 2.07 63
9 08/05/2018 18:45:28 81.36, -52.94 67.37 08/05/2018 18:45:17 81.37, -52.79 67.38 2.69 11
10 08/08/2018 13:29:08 -81.35,-154.36 111.92 08/08/2018 13:30:06 -81.36,-154.24 111.88 1.95 58




NCC Satellite Simultaneous Nadir Overpasses (SNOs) Prediction Service
